Flag for Canada Weather past 2 weeks in Coquitlam, British Columbia, Canada

Now
62 °F

Cool.


Feels Like: 62 °F
Forecast: 54 / 63 °F
Wind: 6 mph from Southwest

Location: P. Meadows Coastal Station

Current Time: Jul 23, 2014 at 6:20:29 PM

Latest Report: Jul 23, 2014 at 5:00 PM


Visibility: N/A

Pressure: 29.96 "Hg

Humidity: 90%

Dew point: 59 °F

Location of CoquitlamLocation

Historic Weather in Coquitlam — Graph

°F

Coquitlam temperature yesterday

Maximum temperature yesterday: 69 °F (at 4:00 PM)
Minimum temperature yesterday: 52 °F (at 5:00 AM)
Average temperature yesterday: 61 °F

Past Weeks' High & Low Weather Summary

 TemperatureHumidityPressure
High92 °F (Jul 13, 5:00 PM)97% (Jul 11, 6:00 AM)30.12 "Hg (Jul 11, 6:00 AM)
Low52 °F (Jul 22, 5:00 AM)27% (Jul 13, 5:00 PM)29.87 "Hg (Jul 10, 6:00 PM)
Average68 °F68%29.99 "Hg
* Reported Jul 8 5:00 PM — Jul 23 5:00 PM, Coquitlam, Weather by CustomWeather, © 2014

Note: Actual official high and low records may vary slightly from our data, if they occured in-between our weather recording intervals... More about our weather records

Advertising

Coquitlam weather history for previous 24 hours

 ConditionsComfort  
Time TempWeatherWind HumidityBarometerVisibility
5:00 PM
Jul 23
62 °FCool.6 mph90%29.96 "HgN/A
4:00 PM65 °FMild.3 mph85%29.96 "HgN/A
3:00 PM65 °FMild.2 mph86%29.98 "HgN/A
2:00 PM64 °FMild.3 mph90%29.98 "HgN/A
1:00 PM65 °FMild.5 mph88%29.98 "HgN/A
12:00 PM64 °FMild.3 mph91%29.98 "HgN/A
11:00 AM64 °FMild.3 mph90%29.98 "HgN/A
10:00 AM62 °FCool.1 mph95%29.97 "HgN/A
9:00 AM62 °FCool.3 mph94%29.98 "HgN/A
8:00 AM62 °FCool.2 mph92%29.93 "HgN/A
7:00 AM59 °FCool.No wind95%29.96 "HgN/A
6:00 AM56 °FCool.2 mph96%29.96 "HgN/A
5:00 AM57 °FCool.1 mph95%29.98 "HgN/A
4:00 AM58 °FCool.No wind96%29.99 "HgN/A
3:00 AM57 °FCool.No wind93%30.01 "HgN/A
2:00 AM60 °FCool.1 mph96%30.01 "HgN/A
10:00 PM
Jul 22
64 °FMild.1 mph84%30.02 "HgN/A
9:00 PM65 °FMild.1 mph72%30.02 "HgN/A
8:00 PM67 °FMild.1 mph70%30.03 "HgN/A
7:00 PM67 °FMild.1 mph69%30.04 "HgN/A
6:00 PM66 °FMild.2 mph74%30.05 "HgN/A
Weather by CustomWeather, © 2014

See weather overviewHow to use our weather pages